Location: Unspecified
(44.4377°N, 88.0525°W)
Time: 04:41:01
(UTC-05:00)

Resurs 1-4 Rocket - Visible Passes

Search period start: 20 October 2014 00:00
Search period end: 30 October 2014 00:00
Orbit: 801 x 814 km, 98.4° (Epoch: 19 October)

Date Brightness Start Highest point End Pass type
(mag) Time Alt. Az. Time Alt. Az. Time Alt. Az.
20 Oct 2.6 04:38:38 10° NNE 04:43:53 57° E 04:47:38 19° S visible
20 Oct 3.3 06:19:23 10° NNW 06:23:19 22° WNW 06:27:15 10° WSW visible
21 Oct 3.5 04:14:29 10° NNE 04:19:21 35° E 04:22:43 18° SSE visible
21 Oct 2.8 05:54:26 10° N 05:59:09 33° WNW 06:03:48 10° SW visible
22 Oct 4.3 03:50:40 10° NE 03:54:43 22° E 03:57:47 14° SE visible
22 Oct 2.2 05:29:43 10° N 05:34:53 52° WNW 05:38:52 17° SW visible
23 Oct 4.9 03:27:35 10° ENE 03:29:59 13° E 03:32:23 10° ESE visible
23 Oct 2.0 05:05:11 10° NNE 05:10:32 84° WNW 05:13:56 23° SSW visible
23 Oct 3.8 06:47:09 10° NNW 06:49:34 13° WNW 06:51:58 10° W visible
24 Oct 2.5 04:40:49 10° NNE 04:46:05 61° E 04:49:00 26° S visible
24 Oct 3.3 06:21:40 10° NNW 06:25:29 21° WNW 06:29:17 10° WSW visible
25 Oct 3.4 04:16:39 10° NNE 04:21:34 37° E 04:24:04 24° SE visible
25 Oct 2.8 05:56:41 10° N 06:01:19 31° WNW 06:05:09 14° WSW visible
26 Oct 4.2 03:52:47 10° NE 03:56:56 23° E 03:59:08 18° SE visible
26 Oct 2.2 05:31:57 10° N 05:37:04 50° WNW 05:40:12 22° SW visible
27 Oct 4.8 03:29:33 10° ENE 03:32:13 14° E 03:34:11 12° ESE visible
27 Oct 1.9 05:07:23 10° NNE 05:12:43 80° WNW 05:15:15 32° SSW visible
27 Oct 3.8 06:49:33 10° NNW 06:51:42 13° NW 06:53:52 10° W visible
28 Oct 2.4 04:43:00 10° NNE 04:48:17 64° ESE 04:50:18 37° SSE visible
28 Oct 3.4 06:23:57 10° NNW 06:27:38 20° WNW 06:31:19 10° WSW visible
29 Oct 3.3 04:18:48 10° NNE 04:23:46 39° E 04:25:21 32° SE visible
29 Oct 2.9 05:58:56 10° N 06:03:29 30° WNW 06:06:26 18° WSW visible
